• Em Portugal
  • Lista de países
  • Para 7 dias
  • Temperatura da água
  • Mapas de satélite
  • Mapa do tempo
  • Widgets de tempo
  • user-avatar
    Iniciar Sessão

    Previsão horária em Jazd

    Hoje, 23 Novembro, Quinta-feira

    Tempo Temperatura Precipitação Vento Pressão Humidade
    00:00 +4°C° 0 mm 3 m/s 557 mmHg 63%
    01:00 +3°C° 0 mm 3 m/s 556 mmHg 65%
    02:00 +3°C° 0 mm 3 m/s 556 mmHg 67%
    03:00 +3°C° 0 mm 3 m/s 556 mmHg 68%
    04:00 +2°C° 0 mm 3 m/s 555 mmHg 70%
    05:00 +2°C° 0 mm 3 m/s 555 mmHg 70%
    06:00 +1°C° 0 mm 3 m/s 555 mmHg 69%
    07:00 +2°C° 0 mm 2 m/s 555 mmHg 69%
    08:00 +3°C° 0 mm 3 m/s 556 mmHg 61%
    09:00 +5°C° 0 mm 3 m/s 557 mmHg 52%
    10:00 +6°C° 0 mm 4 m/s 558 mmHg 43%
    11:00 +7°C° 0 mm 4 m/s 558 mmHg 41%
    12:00 +8°C° 0 mm 4 m/s 558 mmHg 38%
    13:00 +9°C° 0 mm 5 m/s 558 mmHg 35%
    14:00 +9°C° 0 mm 5 m/s 558 mmHg 31%
    15:00 +9°C° 0 mm 5 m/s 558 mmHg 28%
    16:00 +9°C° 0 mm 5 m/s 558 mmHg 24%
    17:00 +8°C° 0 mm 5 m/s 557 mmHg 25%
    18:00 +7°C° 0 mm 4 m/s 557 mmHg 26%
    19:00 +5°C° 0 mm 4 m/s 557 mmHg 27%
    20:00 +5°C° 0 mm 4 m/s 556 mmHg 31%
    21:00 +4°C° 0 mm 4 m/s 556 mmHg 34%
    22:00 +3°C° 0 mm 4 m/s 556 mmHg 38%
    23:00 +2°C° 0 mm 3 m/s 556 mmHg 42%

    Amanhã, 24 Novembro, Sexta-feira

    Tempo Temperatura Precipitação Vento Pressão Humidade
    00:00 +2°C° 0 mm 3 m/s 556 mmHg 46%
    01:00 +2°C° 0 mm 2 m/s 555 mmHg 50%
    02:00 +1°C° 0 mm 2 m/s 555 mmHg 54%
    03:00 +1°C° 0 mm 2 m/s 555 mmHg 59%
    04:00 -1°C° 0 mm 2 m/s 555 mmHg 63%
    05:00 -1°C° 0 mm 2 m/s 555 mmHg 64%
    06:00 -1°C° 0 mm 2 m/s 555 mmHg 66%
    07:00 -2°C° 0 mm 2 m/s 555 mmHg 67%
    08:00 +1°C° 0 mm 2 m/s 556 mmHg 57%
    09:00 +2°C° 0 mm 3 m/s 557 mmHg 46%
    10:00 +4°C° 0 mm 4 m/s 558 mmHg 36%
    11:00 +5°C° 0 mm 4 m/s 558 mmHg 30%
    12:00 +6°C° 0 mm 4 m/s 558 mmHg 25%
    13:00 +7°C° 0 mm 4 m/s 558 mmHg 20%
    14:00 +7°C° 0 mm 4 m/s 558 mmHg 18%
    15:00 +7°C° 0 mm 4 m/s 558 mmHg 17%
    16:00 +7°C° 0 mm 4 m/s 558 mmHg 16%
    17:00 +5°C° 0 mm 3 m/s 558 mmHg 17%
    18:00 +4°C° 0 mm 3 m/s 557 mmHg 18%
    19:00 +4°C° 0 mm 2 m/s 557 mmHg 19%
    20:00 +3°C° 0 mm 2 m/s 557 mmHg 19%
    21:00 +2°C° 0 mm 2 m/s 557 mmHg 20%
    22:00 +2°C° 0 mm 2 m/s 557 mmHg 20%
    23:00 +1°C° 0 mm 2 m/s 557 mmHg 22%

    Depois de amanhã, 25 Novembro, Sábado

    Tempo Temperatura Precipitação Vento Pressão Humidade
    00:00 +1°C° 0 mm 2 m/s 557 mmHg 23%
    01:00 +1°C° 0 mm 1 m/s 557 mmHg 25%
    02:00 0°C° 0 mm 1 m/s 557 mmHg 26%
    03:00 0°C° 0 mm 1 m/s 557 mmHg 28%
    04:00 -1°C° 0 mm 1 m/s 557 mmHg 29%
    05:00 -1°C° 0 mm 1 m/s 557 mmHg 29%
    06:00 -1°C° 0 mm 1 m/s 557 mmHg 30%
    07:00 -2°C° 0 mm 1 m/s 557 mmHg 30%
    08:00 0°C° 0 mm 1 m/s 558 mmHg 26%
    09:00 +2°C° 0 mm 1 m/s 560 mmHg 21%
    10:00 +4°C° 0 mm 1 m/s 561 mmHg 17%
    11:00 +5°C° 0 mm 1 m/s 561 mmHg 15%
    12:00 +6°C° 0 mm 1 m/s 561 mmHg 13%
    13:00 +7°C° 0 mm 1 m/s 561 mmHg 11%
    14:00 +8°C° 0 mm 1 m/s 561 mmHg 11%
    15:00 +8°C° 0 mm 1 m/s 561 mmHg 10%
    16:00 +8°C° 0 mm 1 m/s 561 mmHg 9%
    17:00 +7°C° 0 mm 1 m/s 561 mmHg 11%
    18:00 +6°C° 0 mm 1 m/s 560 mmHg 13%
    19:00 +4°C° 0 mm 1 m/s 560 mmHg 14%
    20:00 +4°C° 0 mm 1 m/s 560 mmHg 15%
    21:00 +3°C° 0 mm 1 m/s 560 mmHg 16%
    22:00 +2°C° 0 mm 1 m/s 560 mmHg 17%
    23:00 +2°C° 0 mm 1 m/s 560 mmHg 18%

    26 Novembro, Domingo

    Tempo Temperatura Precipitação Vento Pressão Humidade
    00:00 +2°C° 0 mm 1 m/s 560 mmHg 18%
    01:00 +1°C° 0 mm 1 m/s 560 mmHg 19%
    02:00 +1°C° 0 mm 1 m/s 560 mmHg 20%
    03:00 0°C° 0 mm 1 m/s 560 mmHg 21%
    04:00 -2°C° 0 mm 2 m/s 560 mmHg 22%
    05:00 0°C° 0 mm 1 m/s 560 mmHg 23%
    06:00 -1°C° 0 mm 1 m/s 560 mmHg 25%
    07:00 -1°C° 0 mm 1 m/s 560 mmHg 26%
    08:00 +1°C° 0 mm 1 m/s 561 mmHg 23%
    09:00 +2°C° 0 mm 1 m/s 562 mmHg 21%
    10:00 +4°C° 0 mm 1 m/s 563 mmHg 18%
    11:00 +4°C° 0 mm 2 m/s 563 mmHg 17%
    12:00 +5°C° 0 mm 2 m/s 563 mmHg 15%
    13:00 +6°C° 0 mm 2 m/s 563 mmHg 14%
    14:00 +7°C° 0 mm 2 m/s 563 mmHg 14%
    15:00 +7°C° 0 mm 2 m/s 563 mmHg 13%
    16:00 +7°C° 0 mm 2 m/s 563 mmHg 13%
    17:00 +6°C° 0 mm 2 m/s 562 mmHg 15%
    18:00 +6°C° 0 mm 1 m/s 562 mmHg 17%
    19:00 +5°C° 0 mm 1 m/s 561 mmHg 19%
    20:00 +4°C° 0 mm 1 m/s 561 mmHg 20%
    21:00 +4°C° 0 mm 1 m/s 561 mmHg 20%
    22:00 +3°C° 0 mm 1 m/s 561 mmHg 21%
    23:00 +3°C° 0 mm 1 m/s 561 mmHg 21%

    27 Novembro, Segunda-feira

    Tempo Temperatura Precipitação Vento Pressão Humidade
    00:00 +3°C° 0 mm 1 m/s 560 mmHg 21%
    01:00 +3°C° 0 mm 1 m/s 560 mmHg 21%
    02:00 +3°C° 0 mm 1 m/s 559 mmHg 22%
    03:00 +2°C° 0 mm 1 m/s 559 mmHg 22%
    04:00 +2°C° 0 mm 1 m/s 559 mmHg 22%
    05:00 +2°C° 0 mm 1 m/s 559 mmHg 22%
    06:00 +2°C° 0 mm 1 m/s 559 mmHg 22%
    07:00 +2°C° 0 mm 1 m/s 559 mmHg 23%
    08:00 +4°C° 0 mm 1 m/s 560 mmHg 20%
    09:00 +6°C° 0 mm 1 m/s 562 mmHg 17%
    10:00 +7°C° 0 mm 2 m/s 563 mmHg 15%
    11:00 +8°C° 0 mm 2 m/s 563 mmHg 14%
    12:00 +9°C° 0 mm 2 m/s 563 mmHg 14%
    13:00 +10°C° 0 mm 2 m/s 563 mmHg 14%
    14:00 +10°C° 0 mm 2 m/s 562 mmHg 16%
    15:00 +10°C° 0 mm 2 m/s 562 mmHg 17%
    16:00 +10°C° 0 mm 2 m/s 562 mmHg 19%
    17:00 +9°C° 0 mm 2 m/s 562 mmHg 21%
    18:00 +8°C° 0 mm 2 m/s 562 mmHg 23%
    19:00 +7°C° 0 mm 2 m/s 561 mmHg 24%
    20:00 +7°C° 0 mm 2 m/s 561 mmHg 26%
    21:00 +7°C° 0 mm 2 m/s 561 mmHg 27%
    22:00 +6°C° 0 mm 2 m/s 561 mmHg 28%
    23:00 +6°C° 0,1 mm 2 m/s 560 mmHg 30%

    28 Novembro, Terça-feira

    Tempo Temperatura Precipitação Vento Pressão Humidade
    00:00 +5°C° 0,1 mm 2 m/s 560 mmHg 31%
    01:00 +5°C° 0,1 mm 2 m/s 559 mmHg 33%
    02:00 +5°C° 0 mm 2 m/s 559 mmHg 37%
    03:00 +5°C° 0 mm 2 m/s 559 mmHg 41%
    04:00 +4°C° 0 mm 2 m/s 559 mmHg 45%
    05:00 +4°C° 0 mm 2 m/s 559 mmHg 48%
    06:00 +4°C° 0 mm 1 m/s 558 mmHg 52%
    07:00 +4°C° 0 mm 1 m/s 558 mmHg 56%
    08:00 +5°C° 0 mm 1 m/s 559 mmHg 51%
    09:00 +7°C° 0 mm 1 m/s 560 mmHg 47%
    10:00 +8°C° 0 mm 1 m/s 561 mmHg 43%
    11:00 +8°C° 0 mm 2 m/s 561 mmHg 41%
    12:00 +9°C° 0 mm 2 m/s 561 mmHg 39%
    13:00 +9°C° 0 mm 2 m/s 561 mmHg 37%
    14:00 +9°C° 0 mm 2 m/s 561 mmHg 36%
    15:00 +10°C° 0 mm 2 m/s 561 mmHg 34%
    16:00 +10°C° 0 mm 2 m/s 560 mmHg 32%
    17:00 +9°C° 0 mm 2 m/s 560 mmHg 34%
    18:00 +8°C° 0 mm 2 m/s 560 mmHg 36%
    19:00 +8°C° 0 mm 1 m/s 560 mmHg 38%
    20:00 +7°C° 0 mm 1 m/s 559 mmHg 39%
    21:00 +7°C° 0 mm 1 m/s 559 mmHg 41%
    22:00 +6°C° 0 mm 1 m/s 559 mmHg 42%
    23:00 +6°C° 0 mm 1 m/s 558 mmHg 43%
    Mostrar mais